Estación de Trinidad

Ultimos registro cada 15 minutos 34
Estación Fecha / Hora Temperatura Humedad Lluvia Velocidad Dirección Radiación Presion
34 Trinidad 09-05-2026 08:30 6,7 88 0 0,4 156 127 1020,5
33 Trinidad 09-05-2026 08:15 6,2 90 0 0 156 79 1020,3
32 Trinidad 09-05-2026 08:00 6,1 89 0 0,4 156 18 1020,5
31 Trinidad 09-05-2026 07:45 6,1 89 0 0 158 7 1020,3
30 Trinidad 09-05-2026 07:15 6 87 0 0 158 0 1020,4
29 Trinidad 09-05-2026 07:00 5,8 88 0 0 158 0 1020,4
28 Trinidad 09-05-2026 06:45 5,9 88 0 0 158 0 1020,4
27 Trinidad 09-05-2026 06:30 6,4 87 0 0 158 0 1020,5
26 Trinidad 09-05-2026 06:15 6,3 88 0 0,9 158 0 1020,6
25 Trinidad 09-05-2026 06:00 6,4 87 0 0,4 158 0 1020,6
24 Trinidad 09-05-2026 05:45 6,8 87 0 0,9 158 0 1020,8
23 Trinidad 09-05-2026 05:30 7 87 0 0 158 0 1020,6
22 Trinidad 09-05-2026 05:15 7,3 87 0 0 158 0 1020,4
21 Trinidad 09-05-2026 05:00 7,7 87 0 1,3 158 0 1020,5
20 Trinidad 09-05-2026 04:45 7,9 87 0 0,4 158 0 1020,5
19 Trinidad 09-05-2026 04:30 8,1 87 0 0 158 0 1020,5
18 Trinidad 09-05-2026 04:15 8,3 86 0 0 158 0 1020,5
17 Trinidad 09-05-2026 04:00 8,6 86 0 0 158 0 1020,5
16 Trinidad 09-05-2026 03:45 8,8 86 0 0,4 158 0 1020,7
15 Trinidad 09-05-2026 03:30 9,1 85 0 0,4 158 0 1020,8
14 Trinidad 09-05-2026 03:15 9,5 85 0 0,9 157 0 1021
13 Trinidad 09-05-2026 03:00 9,6 85 0 1,3 157 0 1021
12 Trinidad 09-05-2026 02:45 9,6 86 0 0,4 156 0 1021
11 Trinidad 09-05-2026 02:30 9,7 86 0 1,3 152 0 1020,9
10 Trinidad 09-05-2026 02:15 9,8 86 0 0,4 149 0 1021,3
9 Trinidad 09-05-2026 02:00 9,8 86 0 2,7 149 0 1021,3
8 Trinidad 09-05-2026 01:45 10,1 85 0 2,2 187 0 1021,4
7 Trinidad 09-05-2026 01:30 10,3 84 0 0,4 165 0 1021,4
6 Trinidad 09-05-2026 01:15 10,6 85 0 1,3 155 0 1021,2
5 Trinidad 09-05-2026 01:00 10,7 85 0 0,9 159 0 1021,4
4 Trinidad 09-05-2026 00:45 10,8 84 0 0,9 173 0 1021,4
3 Trinidad 09-05-2026 00:30 10,9 84 0 0,9 160 0 1021,3
2 Trinidad 09-05-2026 00:15 10,9 84 0 1,3 164 0 1021,2
1 Trinidad 09-05-2026 00:00 10,9 84 0 1,3 162 0 1021,2